Tracking 17694 objects as of 26-May-2016
HD Live streaming from Space Station
objects crossing your sky now

TDRS 3

Track TDRS 3 now!
TDRS 3 is classified as:


NORAD ID: 19548
Int'l Code: 1988-091B
Perigee: 35,715.6 km
Apogee: 36,024.7 km
Inclination: 14.8 °
Period: 1,440.0 minutes
Semi major axis: 42241 km
RCS: 38.9601 m2 (large)
Launch date: September 29, 1988
Source: United States (US)
Launch site: AIR FORCE EASTERN TEST RANGE (AFETR)

Backup; still partially operational.
Your satellite tracking list
Your tracking list is empty





NASA's NSSDC Master Catalog

Two Line Element Set (TLE):
1 19548U 88091B   16147.15469745 -.00000300  00000-0  00000+0 0  9996
2 19548  14.8035  12.2560 0036588 309.5935 275.8065  1.00273766 88528
Source of the keplerian elements: AFSPC

N2YO: 824